Tracking 30308 objects as of 19-Apr-2025
HD Live streaming from Space Station
objects crossing your sky now

FENGYUN 1C DEB

Track FENGYUN 1C DEB now!
10-day predictions


NORAD ID: 32432
Int'l Code: 1999-025DAU
Perigee: 608.7 km
Apogee: 867.8 km
Inclination: 98.2 °
Period: 99.4 minutes
Semi major axis: 7109 km
RCS: 0.0125 m2 (small)
Launch date: May 10, 1999
Source: People's Republic of China (PRC)
Launch site: Taiyaun Space Center, China (TSC)

Note: This is SATELLITE DEBRIS
Your satellite tracking list
Your tracking list is empty




NASA's NSSDC Master Catalog

Two Line Element Set (TLE):
1 32432U 99025DAU 25106.36432312  .00014012  00000-0  30422-2 0  9998
2 32432  98.1902 149.2412 0182248 324.5209  34.3972 14.48326721672111
Source of the keplerian elements: AFSPC